Location: *
(44.9667°S, 169.2167°W)
Time: 21:32:59
(UTC+00:00)

Daily predictions for brighter satellites

Satellite Brightness Start Highest point End
(mag) Time Altitude Azimuth Time Altitude Azimuth Time Altitude Azimuth
Cosmos 2360 Rocket 4.4 13:42:05 21° SE 13:42:05 21° SE 13:43:57 10° SE
Cosmos 2322 Rocket 4.5 13:48:21 19° SSE 13:48:21 19° SSE 13:49:54 10° SSE
Cosmos 2333 Rocket 4.1 14:00:55 26° E 14:00:55 26° E 14:04:33 10° SE
Cosmos 2278 Rocket 4.4 14:07:07 10° S 14:11:26 21° SE 14:15:43 10° E
H-2A R/B 4.5 14:19:34 10° SE 14:22:12 21° ESE 14:22:12 21° ESE
SL-16 R/B 3.5 14:28:58 10° S 14:32:51 39° S 14:32:51 39° S
Cosmos 2219 Rocket 3.0 14:36:24 47° E 14:36:24 47° E 14:41:13 10° SE
CZ-4C R/B 3.3 14:37:07 49° SSW 14:37:07 49° SSW 14:42:41 10° SSE
USA 229 DEB 3.6 14:51:54 74° NNE 14:51:54 74° NNE 14:57:44 10° NE
USA 229 3.6 14:51:55 76° NE 14:51:55 76° NE 14:57:52 10° NE
Cosmos 1634 Rocket 4.1 14:54:00 64° SSW 14:54:00 64° SSW 14:59:25 10° S
Cosmos 2322 4.1 15:01:29 55° S 15:01:29 55° S 15:06:06 10° SSE
NOSS 3-1 (A) 3.4 14:59:50 59° SSW 15:00:56 74° SE 15:06:30 10° NE
COSMOS 2428 2.7 15:03:29 76° ENE 15:03:35 76° ENE 15:09:21 10° SSE
Cosmos 2333 4.4 15:05:46 61° SSW 15:05:46 61° SSW 15:10:46 10° SSE
FENGYUN 3A 4.2 15:00:51 10° NNE 15:06:08 58° ESE 15:11:31 10° S
ISS -1.3 15:12:26 24° ESE 15:12:26 24° ESE 15:14:13 10° E
USA 215 3.4 15:05:33 10° ENE 15:12:07 72° SE 15:15:26 32° SW
Cosmos 1420 Rocket 4.4 15:06:51 10° SSW 15:12:10 64° ESE 15:17:28 10° NNE
Cosmos 2142 Rocket 4.3 15:13:19 74° WNW 15:13:33 75° W 15:19:47 10° S
NOSS 2-3 (C) 4.3 15:15:43 24° SW 15:20:03 85° SE 15:25:26 10° NE
STARLINK-1243 4.5 15:21:55 46° SSE 15:21:55 46° SSE 15:25:09 10° SE
Meteor 1-21 4.4 15:15:19 10° S 15:21:03 74° ESE 15:26:47 10° NNE
SL-16 R/B 4.1 15:23:19 16° SSW 15:23:19 16° SSW 15:25:40 10° S
ALOS 2.4 15:17:49 10° NNE 15:22:31 75° ESE 15:27:16 10° S
Cosmos 2360 Rocket 3.4 15:23:51 28° SSW 15:23:51 28° SSW 15:27:42 10° S
STARLINK-1103 4.5 15:25:37 44° SSE 15:25:49 44° SSE 15:29:52 10° E
STARLINK-1236 4.3 15:26:43 48° SSE 15:26:43 48° SSE 15:30:08 10° SE
Cosmos 1975 4.2 15:28:51 31° S 15:28:51 31° S 15:31:08 10° S
Cosmos 1655 Rocket 4.0 15:20:31 10° S 15:27:02 87° E 15:33:29 10° N
NOSS 3-1 (C) 4.2 15:29:26 31° N 15:29:26 31° N 15:32:21 10° NNE
SL-08 R/B 4.0 15:24:04 10° S 15:27:26 41° SSW 15:27:26 41° SSW
Cosmos 2322 Rocket 4.1 15:30:10 16° SSW 15:30:10 16° SSW 15:32:46 10° S
STARLINK-1101 4.4 15:30:23 45° S 15:30:48 47° SSE 15:34:53 10° E
STARLINK-1102 4.3 15:35:12 45° S 15:35:50 49° SSE 15:39:56 10° E
STARLINK-1269 4.2 15:36:16 49° S 15:36:16 49° S 15:40:04 10° SE
BREEZE-M DEB (TANK) 3.5 15:37:05 41° SSE 15:37:05 41° SSE 15:41:58 10° E
CZ-4B DEB 4.5 15:31:44 10° NNE 15:37:18 72° ESE 15:42:55 10° S
STARLINK-1117 4.5 15:39:43 38° N 15:39:43 38° N 15:42:37 10° NE
Cosmos 2279 Rocket 4.0 15:36:47 44° NW 15:38:35 59° WSW 15:44:51 10° S
STARLINK-1111 4.3 15:39:58 44° SSW 15:40:48 52° SSE 15:44:56 10° ENE
STARLINK-1200 4.1 15:41:03 48° SSW 15:41:03 48° SSW 15:45:04 10° SE
STARLINK-1078 4.4 15:44:30 39° N 15:44:30 39° N 15:47:32 10° NNE
Cosmos 2333 Rocket 2.4 15:42:57 47° W 15:43:41 50° WSW 15:49:21 10° SSE
Cosmos 1300 Rocket 3.6 15:41:52 22° N 15:44:40 79° E 15:49:12 10° S
STARLINK-1073 4.2 15:44:44 42° SSW 15:45:47 55° SSE 15:49:55 10° ENE
Cosmos 2237 Rocket 2.5 15:41:08 15° N 15:45:51 67° ENE 15:51:34 10° SSE
STARLINK-1192 4.1 15:45:50 46° SSW 15:45:56 46° SSW 15:50:02 10° SE
STARLINK-1108 4.4 15:49:18 38° N 15:49:18 38° N 15:52:27 10° NNE
STARLINK-1121 4.1 15:49:31 40° SSW 15:50:47 59° SSE 15:54:56 10° ENE
PSLV R/B 3.6 15:47:08 10° N 15:50:57 73° WNW 15:54:48 10° SSW
STARLINK-1244 4.2 15:50:42 43° SW 15:51:01 43° SSW 15:55:05 10° SE
SL-8 R/B 4.0 15:51:02 40° SW 15:52:38 63° S 15:57:30 10° E
Cosmos 1242 Rocket 3.7 15:49:25 10° S 15:53:01 46° ESE 15:56:32 10° NNE
STARLINK-1071 4.4 15:54:06 37° NNW 15:54:06 37° NNW 15:57:21 10° NNE
STARLINK-1106 4.0 15:54:19 37° SW 15:55:48 63° SSE 15:59:58 10° ENE
STARLINK-1138 4.3 15:55:24 39° SW 15:55:57 41° SSW 15:59:59 10° SE
Cosmos 2278 Rocket 2.1 15:50:26 10° SSW 15:56:10 76° WNW 16:01:50 10° NNE
STARLINK-1110 4.4 15:58:53 35° NNW 15:58:53 35° NNW 16:02:15 10° NNE
H-2A R/B 2.6 15:55:03 10° S 15:59:18 39° WSW 15:59:18 39° WSW
CZ-4B R/B 3.5 15:54:29 10° NNE 16:00:09 72° ESE 16:05:49 10° S
STARLINK-1112 3.9 15:59:06 34° SW 16:00:47 67° SSE 16:04:58 10° ENE
Cosmos 1452 Rocket 3.4 15:55:28 10° SSW 16:00:47 70° WNW 16:06:02 10° N
STARLINK-1143 4.3 16:00:11 36° SW 16:00:57 40° SSW 16:04:58 10° SE
NOSS 0 Rocket 3.9 15:57:14 20° NNW 16:01:41 78° WSW 16:08:01 10° SSE
Okean 2 Rocket 3.1 16:00:01 33° NW 16:01:50 57° WSW 16:06:20 10° S
CZ-4B R/B 1.5 15:59:27 10° SSE 16:02:50 74° ENE 16:05:51 13° N
STARLINK-1124 4.4 16:03:38 33° NW 16:03:38 33° NW 16:07:06 10° NNE
Cosmos 2151 Rocket 3.5 15:59:01 10° N 16:03:32 80° W 16:08:08 10° S
Abrixas rocket 2.1 16:03:38 65° S 16:03:38 65° S 16:06:36 10° ESE
Meteor 1-12 Rocket 4.2 15:58:07 10° N 16:03:50 88° W 16:09:36 10° S
TIMED 4.5 16:02:47 35° NW 16:04:31 65° WSW 16:08:56 10° SSE
Sich 1 Rocket 4.4 16:06:05 32° WSW 16:06:05 32° WSW 16:09:58 10° S
STARLINK-1128 3.8 16:03:53 32° SW 16:05:46 72° SSE 16:09:58 10° ENE
STARLINK-1241 4.5 16:05:00 33° SW 16:06:00 38° SSW 16:09:59 10° SE
Iridium 82 4.5 16:02:44 10° S 16:06:23 62° W 16:09:54 10° N
NOAA 6 4.0 16:03:15 10° NNE 16:08:28 87° WNW 16:13:46 10° SSW
CRYOSAT 2 4.3 16:04:20 10° N 16:09:16 74° W 16:14:17 10° S
H-2A R/B 3.8 16:05:44 10° NNE 16:09:32 48° ESE 16:13:20 10° S
STARLINK-1113 3.7 16:08:42 29° SW 16:10:47 77° SSE 16:14:59 10° ENE
Okean O Rocket 1.7 16:06:54 10° NNE 16:11:23 81° ESE 16:15:57 10° SSW
Meteor 2-9 Rocket 4.5 16:09:09 22° NW 16:12:26 44° WSW 16:17:44 10° S
Cosmos 1356 3.3 16:11:32 22° NNW 16:13:40 70° WSW 16:17:12 10° S
COBE Rocket 4.3 16:10:44 10° S 16:15:44 46° WSW 16:19:44 15° NW
STARLINK-1119 3.7 16:13:27 26° SW 16:15:44 82° SSE 16:19:56 10° ENE
Cosmos 468 4.4 16:11:02 10° NNW 16:16:21 78° WSW 16:21:41 10° SSE
SL-16 R/B 4.3 16:14:52 10° SSW 16:17:40 13° SW 16:17:56 13° SW
SAR-Lupe-4 4.0 16:14:19 10° S 16:17:46 39° WSW 16:18:33 34° WNW
Cosmos 1707 2.7 16:15:39 10° SSW 16:19:32 62° W 16:23:22 10° N
Cosmos 2219 Rocket 3.1 16:18:10 25° W 16:19:56 29° SW 16:24:53 10° S
STARLINK-1114 3.6 16:18:14 24° SW 16:20:43 88° SE 16:24:55 10° ENE
Cosmos 1689 Rocket 2.4 16:20:56 10° SSE 16:24:01 68° ENE 16:27:04 10° N
STARLINK-1130 (DARKSAT) 3.6 16:23:02 22° WSW 16:25:42 86° NNW 16:29:54 10° NE
CZ-4C R/B 4.2 16:22:19 14° WSW 16:26:01 20° SSW 16:30:43 10° SSE
Cosmos 2292 Rocket 4.2 16:22:58 10° SSW 16:27:17 45° W 16:32:53 10° NNW
Landsat 5 4.5 16:25:18 10° S 16:28:50 26° WSW 16:29:48 23° W
Cosmos 1271 Rocket 2.7 16:25:30 10° SSW 16:29:37 73° W 16:33:38 10° N
Cosmos 1025 Rocket 3.5 16:26:05 10° SSW 16:30:15 40° W 16:34:24 10° NNW
STARLINK-1084 3.6 16:27:49 20° WSW 16:30:41 80° NNW 16:34:52 10° NE
Cosmos 371 Rocket 3.6 16:30:41 10° SSW 16:35:21 43° WNW 16:39:56 10° N
YAOGAN 6 4.3 16:32:17 10° NE 16:35:34 35° ESE 16:38:52 10° S
STARLINK-1098 3.6 16:32:36 18° WSW 16:35:39 75° NW 16:39:50 10° NE
SL-4 R/B 4.1 16:33:29 10° NNW 16:37:42 31° NE 16:42:01 10° ESE
STARLINK-1123 3.6 16:37:23 16° WSW 16:40:37 69° NW 16:44:47 10° NE
Okean 1 Rocket 3.1 16:39:29 10° NNW 16:43:58 67° W 16:48:32 10° S
STARLINK-1097 3.7 16:42:09 15° WSW 16:45:34 63° NW 16:49:43 10° NE
KORONAS-FOTON 4.4 16:42:10 10° S 16:46:10 66° E 16:50:07 10° NNE
CORIOLIS 4.3 16:42:33 10° NNE 16:47:56 83° ESE 16:53:23 10° SSW
ISS -3.6 16:45:27 16° WSW 16:48:01 61° NW 16:51:25 10° NE
COSMOS 2428 4.1 16:45:32 15° W 16:48:30 21° SW 16:52:51 10° S
Cosmos 1980 4.2 16:43:47 10° NW 16:49:07 40° SW 16:54:31 10° SSE
STARLINK-1099 3.8 16:46:56 13° WSW 16:50:34 58° NW 16:54:41 10° NE
Cosmos 494 Rocket 4.0 16:46:27 10° NNW 16:51:41 71° WSW 16:56:55 10° SSE
USA 215 3.8 16:49:20 10° NNE 16:55:23 39° NW 17:01:31 10° WSW
STARLINK-1104 3.9 16:51:43 12° WSW 16:55:30 53° NW 16:59:36 10° NE
Meteor 1-24 Rocket 4.5 16:51:34 10° S 16:57:34 63° ESE 17:03:36 10° NNE
Envisat 3.0 16:54:18 10° NNE 16:59:26 85° WNW 17:04:38 10° SSW
Feng Yun 1-1 Rocket 4.5 16:53:51 10° NNE 16:59:45 87° WNW 17:05:48 10° SSW
Okean-O 3.7 16:55:41 10° NNE 17:00:01 51° ESE 17:04:25 10° S
STARLINK-1144 4.0 16:56:29 11° WSW 17:00:27 49° NW 17:04:31 10° NE
ALOS 3.9 16:58:23 10° WNW 17:00:29 13° W 17:02:35 10° WSW
Aureole 2 Rocket 4.4 17:01:54 10° S 17:04:14 24° ESE 17:06:35 10° ENE
STARLINK-1103 4.1 17:01:24 10° WSW 17:05:26 45° NW 17:09:27 10° NNE
SMAP 3.2 17:01:25 10° N 17:06:01 55° W 17:10:41 10° SSW
GP-B 3.3 17:02:39 10° NNW 17:07:02 53° W 17:11:29 10° S
SL-16 R/B 2.2 17:02:01 10° NNW 17:07:44 76° WSW 17:13:32 10° SSE
STARLINK-1101 4.2 17:06:23 10° WSW 17:10:23 41° NW 17:14:20 10° NNE
CZ-3 R/B 4.1 16:54:32 10° W 17:12:46 27° NW 17:19:42 10° NNE
S3M 4.2 17:08:04 10° N 17:14:12 83° E 17:20:26 10° S
CZ-4 R/B 2.8 17:10:43 10° NE 17:14:46 45° ESE 17:18:52 10° S
Okean 1-7 Rocket 3.8 17:10:18 10° S 17:14:59 88° ESE 17:19:36 10° N
STARLINK-1102 4.3 17:11:27 10° WSW 17:15:22 38° NW 17:19:15 10° NNE
Cosmos 1626 3.0 17:14:26 10° S 17:18:11 57° E 17:21:53 10° NNE
ATLAS 2AS CENTAUR R/B 4.1 17:13:48 10° SSW 17:19:39 34° SE 17:25:53 10° E
STARLINK-1111 4.5 17:16:27 10° WSW 17:20:18 35° NW 17:24:07 10° NNE
Cosmos 1269 Rocket 4.2 17:17:03 10° NW 17:22:16 56° WSW 17:27:33 10° SSE
